STARLINK-3056, 49159

Orbit data source: Space-Track

STARLINK-3056, 49159 is a payload satellite owned by SpaceX/Seattle (US) in LEO that was launched on Tue, 14 Sep 2021 UTC via an FALCON 9 launch vehicle from the Air Force Western Test Range (AFWTR). Payload-class satellites include a variety of spacecraft equipped with specific instruments for various scientific and technological missions. These include communications satellites like Starlink; space stations such as the ISS; scientific satellites like the Hubble; Earth observation satellites from companies like Planet Labs, Umbra, and HawkEye 360; GPS; miniature CubeSats for education and research; and military/defense satellites.

Loading next visibility...
Identifier
49159, 2021-082AF
Orbit
LEO
Last TLE update
11 hours ago
Origin
Manufacturer
SpaceX/Seattle
Mission
Operational Commercial Communications
Bus & Motor
STARLINK, Unknown motor
Mass
297 kg wet, ~275 kg dry
Launch date (UTC)
2021-09-14 (4 years ago)
Launch vehicle
FALCON 9
Launch site
Air Force Western Test Range (AFWTR)
Object type
Payload
Rocket body
Debris
Shape & HBR
Box + 1 Pan, 8.86 m
Radar Cross Section
13.562 m², Large (>1 m²)

Expand to show TLE details & history

TLE from 11 hours ago
0 STARLINK-3056
1 49159U 21082AF  25128.92966177  .00000588  00000-0  57079-4 0  9999
2 49159  69.9992 342.8651 0002973 265.3506  94.7314 14.98331159201422
Epoch: 2025-05-08T22:18Z
Definitive object data (Epoch: 2025-05-08T22:18:42.776Z)
Latitude
-0.00001°
Longitude
141.19376°
Altitude
574.647 km
Speed
7.574 km/s
True Right ascension
22h 51m 27s
True Declination
0° 00' 00"
Sunlit
Object was in daylight at TLE epoch
Visualization TLE readout
Latitude
-59.25788°
Longitude
102.5539°
Altitude
592.531 km
Speed
7.564 km/s
Apparent Right ascension
02h 16m 06s
Apparent Declination
-71° 27' 58"
Sunlit
Object is in daylight
Visualization observer readout
Local Sidereal Time
17:23:19
Azimuth
158.477° S
Elevation
-50.829°
Doppler factor
1
Orbital elements
Apogee altitude
572.066 km
Perigee altitude
567.935 km
Semi-major axis
6,948.138 km
Eccentricity
0.0002973
Inclination
69.9992°
RAAN
342.8651°
Arg. of periapsis
265.3506°
True anomaly
94.76535°
Mean anomaly
94.7314°
Eccentric anomaly
94.74838°
Mean motion
3.74749 °/min
BSTAR
0.000057079
Orbital period
96.06 mins
Loading maneuver chart data...
Loading SW <> Apogee altitude chart data...
Loading historical data...
Loading historical data...
Loading historical data...
Loading historical data...
Loading historical data...
Loading historical data...
Loading historical data...

STARLINK-3056 Visibility forecast

Observer location: undefined°, undefined°

Span
Click to sort rows by Start time (UTC) header in descending order
Start Az.
Max El. time (UTC)
Max El. Az.
Max El.
End time (UTC)
End Az.
6 mins2025-05-09 16:06:01.626Z234.281° WSW2025-05-09 16:08:01.626Z289.221° WNW36.772°2025-05-09 16:12:01.626Z12.672° NNE
5 mins2025-05-10 00:30:01.626Z9.826° NNE2025-05-10 00:32:01.626Z50.131° ENE25.885°2025-05-10 00:35:01.626Z111.72° ESE
4 mins2025-05-10 02:09:01.626Z283.849° WNW2025-05-10 02:10:01.626Z264.354° W20.717°2025-05-10 02:13:01.626Z209.863° SW
|